User: anonymous   Login
Location: Unspecified
(0.0000°N, 0.0000°E)
Time: 01:31:22
(UTC+00:00)
Language:

WGS F3 (USA 211) - Orbit

View from above orbital plane
View from above orbital plane
View from above satellite
View from above satellite

Ground track
Ground track

The orbit data is extracted from the following two-line orbital elements,

1 36108U 09068A   16236.27505168 0.00000000  00000-0  00000-0 0    06
2 36108   0.0147  58.9102 0003453  14.4235 345.6120  1.00270000    02
Epoch (UTC): 23 August 2016 06:36:04
Eccentricity: 0.0003453
inclination: 0.0147°
perigee height: 35772 km
apogee height: 35801 km
right ascension of ascending node: 58.9102°
argument of perigee: 14.4235°
revolutions per day: 1.00270000
mean anomaly at epoch: 345.6120°
orbit number at epoch: 0

The dashed part of the orbit path shows where the satellite is in the earth's shadow,  

DLR